Regional Weather Roundup
Issued by NWS Charleston, WV

Current Version | Previous Version | Text Only | Print | Product List | Glossary On
Versions: 1 2 3 4 5 6 7 8 9 10 11 12 13 14 15 16 17 18 19 20 21 22 23 24 25 26 27 28
000
ASUS41 KRLX 301310
RWRRLX
Regional Weather Roundup
National Weather Service Charleston WV
900 AM EDT FRI SEP 30 2022

Note: "fair" indicates few or no clouds below 12,000 feet with no
significant weather and/or obstructions to visibility.

WVZ003-301400-
Northern Panhandle of West Virginia

CITY           SKY/WX    TMP DP  RH WIND       PRES   REMARKS
WHEELING       PTSUNNY   45  42  89 NE6       30.29F
$$

WVZ009-301400-
Northwest West Virginia

CITY           SKY/WX    TMP DP  RH WIND       PRES   REMARKS
PARKERSBURG    PTSUNNY   47  44  90 N3        30.27S
$$

WVZ006-301400-
Western West Virginia

CITY           SKY/WX    TMP DP  RH WIND       PRES   REMARKS
HUNTINGTON     PTSUNNY   47  44  90 N6        30.22F
POINT PLEASANT NOT AVBL
$$

WVZ015-301400-
West Central West Virginia

CITY           SKY/WX    TMP DP  RH WIND       PRES   REMARKS
CHARLESTON     FOG       44  44 100 NE3       30.22F VSB 1/4
$$

WVZ509-031-039-301400-
North Central West Virginia

CITY           SKY/WX    TMP DP  RH WIND       PRES   REMARKS
MORGANTOWN     CLOUDY    47  44  90 CALM      30.29S
CLARKSBURG     CLOUDY    50  44  80 N6        30.26F
BUCKHANNON     CLOUDY    46  46 100 N5        30.24F
$$

WVZ515-516-025-034-042-507-301400-
Southern West Virginia

CITY           SKY/WX    TMP DP  RH WIND       PRES   REMARKS
BECKLEY        CLOUDY    48  42  80 E9        30.20S
LOGAN          FAIR      48  46  93 NE6       30.19F
PINEVILLE      NOT AVBL
BLUEFIELD      CLOUDY    44  42  93 E5        30.20S
LEWISBURG      CLOUDY    47  43  84 CALM      30.23R
$$

WVZ525-526-301400-
Northern Mountains of West Virginia

CITY           SKY/WX    TMP DP  RH WIND       PRES   REMARKS
ELKINS         CLOUDY    46  43  89 CALM      30.25F
$$

WVZ502-504-052-301400-
Eastern Panhandle of West Virginia

CITY           SKY/WX    TMP DP  RH WIND       PRES   REMARKS
PETERSBURG     CLOUDY    45  45 100 CALM      30.33S FOG
CUMBERLAND     NOT AVBL
MARTINSBURG    CLOUDY    50  43  77 N8        30.30S
$$

OHZ075-083-KYZ101-301400-
Southeast Ohio/Northeast Kentucky

CITY           SKY/WX    TMP DP  RH WIND       PRES   REMARKS
ATHENS         PTSUNNY  N/A N/A N/A CALM      30.26F
JACKSON        NOT AVBL
ASHLAND        MOSUNNY   46  32  58 CALM      30.26S
$$



USA.gov is the U.S. government's official web portal to all federal, state and local government web resources and services.